| time (UTC) | temp F | wind direction | speed knots | gust knots | rain 1hr in | rain 24hr in | rain mn in | humidity % | barometer mb |
| 20260504110405 | 48 | 220 | 6.1 | 10.4 | 0.00 | 0.00 | 0.00 | 58 | 1010.7 |
| 20260504100405 | 46 | 220 | 4.3 | 7.0 | 0.00 | 0.00 | 0.00 | 60 | 1010.8 |
| 20260504081905 | 47 | 252 | 5.2 | 10.4 | 0.00 | 0.00 | 0.00 | 59 | 1011.2 |
| 20260504081404 | 47 | 257 | 6.1 | 11.3 | 0.00 | 0.00 | 0.00 | 59 | 1011.2 |
| 20260504080905 | 47 | 258 | 5.2 | 10.4 | 0.00 | 0.00 | 0.00 | 59 | 1011.1 |
| 20260504080404 | 47 | 289 | 5.2 | 10.4 | 0.00 | 0.00 | 0.00 | 59 | 1011.2 |
| 20260504070405 | 48 | 235 | 4.3 | 6.1 | 0.00 | 0.00 | 0.00 | 58 | 1011.1 |
| 20260504045405 | 49 | 296 | 5.2 | 7.8 | 0.00 | 0.00 | 0.00 | 57 | 1011.4 |
| 20260504044905 | 49 | 286 | 3.5 | 10.4 | 0.00 | 0.00 | 0.00 | 57 | 1011.4 |
| 20260504044404 | 49 | 309 | 4.3 | 6.1 | 0.00 | 0.00 | 0.00 | 57 | 1011.4 |
| 20260504043404 | 49 | 288 | 3.5 | 7.0 | 0.00 | 0.00 | 0.00 | 57 | 1011.4 |
| 20260504042904 | 49 | 317 | 4.3 | 7.0 | 0.00 | 0.00 | 0.00 | 57 | 1011.3 |
| 20260504042405 | 49 | 322 | 4.3 | 7.0 | 0.00 | 0.00 | 0.00 | 57 | 1011.2 |
| 20260504041904 | 49 | 321 | 2.6 | 6.1 | 0.00 | 0.00 | 0.00 | 57 | 1011.2 |
| 20260504041404 | 49 | 296 | 4.3 | 8.7 | 0.00 | 0.00 | 0.00 | 57 | 1011.1 |
| 20260504040904 | 49 | 294 | 2.6 | 7.0 | 0.00 | 0.00 | 0.00 | 57 | 1011.1 |
| 20260504040405 | 49 | 328 | 3.5 | 7.8 | 0.00 | 0.00 | 0.00 | 57 | 1011.1 |
| 20260504035404 | 49 | 3 | 1.7 | 5.2 | 0.00 | 0.00 | 0.00 | 57 | 1011.1 |
| 20260504034904 | 49 | 278 | 3.5 | 7.0 | 0.00 | 0.00 | 0.00 | 57 | 1011.1 |
| 20260504034404 | 49 | 308 | 3.5 | 7.8 | 0.00 | 0.00 | 0.00 | 57 | 1011.1 |
| 20260504033907 | 49 | 302 | 3.5 | 7.0 | 0.00 | 0.00 | 0.00 | 57 | 1011.0 |
| 20260504033404 | 49 | 326 | 2.6 | 5.2 | 0.00 | 0.00 | 0.00 | 57 | 1011.0 |
| 20260504032904 | 49 | 311 | 3.5 | 6.1 | 0.00 | 0.00 | 0.00 | 57 | 1011.0 |
| 20260504032404 | 49 | 308 | 2.6 | 5.2 | 0.00 | 0.00 | 0.00 | 57 | 1011.1 |
| 20260504031904 | 49 | 321 | 2.6 | 6.1 | 0.00 | 0.00 | 0.00 | 56 | 1011.1 |
| 20260504031404 | 49 | 278 | 1.7 | 6.1 | 0.00 | 0.00 | 0.00 | 57 | 1011.1 |
| 20260504030904 | 49 | 327 | 3.5 | 7.8 | 0.00 | 0.00 | 0.00 | 56 | 1011.0 |
| 20260504025904 | 49 | 333 | 2.6 | 7.8 | 0.00 | 0.00 | 0.00 | 56 | 1011.1 |
| 20260504024904 | 49 | 330 | 1.7 | 5.2 | 0.00 | 0.00 | 0.00 | 56 | 1011.1 |
| 20260504024403 | 49 | 342 | 2.6 | 5.2 | 0.00 | 0.00 | 0.00 | 56 | 1011.1 |
| 20260504023904 | 49 | 263 | 2.6 | 6.1 | 0.00 | 0.00 | 0.00 | 56 | 1011.1 |
| 20260504023405 | 49 | 326 | 4.3 | 7.8 | 0.00 | 0.00 | 0.00 | 56 | 1011.1 |
| 20260504022404 | 50 | 328 | 3.5 | 6.1 | 0.00 | 0.00 | 0.00 | 55 | 1011.1 |
| 20260504021905 | 50 | 311 | 4.3 | 7.8 | 0.00 | 0.00 | 0.00 | 55 | 1011.2 |
| 20260504020904 | 50 | 295 | 2.6 | 7.0 | 0.00 | 0.00 | 0.00 | 55 | 1011.2 |
| 20260504020404 | 50 | 325 | 2.6 | 6.1 | 0.00 | 0.00 | 0.00 | 54 | 1011.2 |
| 20260504014404 | 50 | 287 | 3.5 | 10.4 | 0.00 | 0.00 | 0.00 | 54 | 1011.1 |
| 20260504013905 | 50 | 285 | 4.3 | 7.8 | 0.00 | 0.00 | 0.00 | 54 | 1011.1 |
| 20260504013404 | 50 | 267 | 2.6 | 7.0 | 0.00 | 0.00 | 0.00 | 54 | 1011.0 |
| 20260504012905 | 50 | 245 | 3.5 | 7.8 | 0.00 | 0.00 | 0.00 | 54 | 1011.0 |
| 20260504012404 | 50 | 282 | 2.6 | 6.1 | 0.00 | 0.00 | 0.00 | 53 | 1011.0 |
| 20260504011404 | 50 | 260 | 2.6 | 5.2 | 0.00 | 0.00 | 0.00 | 53 | 1010.9 |
| 20260504010404 | 51 | 316 | 3.5 | 7.0 | 0.00 | 0.00 | 0.00 | 53 | 1010.9 |
| 20260504005904 | 51 | 331 | 3.5 | 7.0 | 0.00 | 0.00 | 0.00 | 52 | 1010.9 |
| 20260504005405 | 51 | 310 | 4.3 | 7.0 | 0.00 | 0.00 | 0.00 | 52 | 1010.8 |
| 20260504004904 | 51 | 300 | 3.5 | 7.8 | 0.00 | 0.00 | 0.00 | 52 | 1010.7 |
| 20260504004404 | 51 | 342 | 4.3 | 8.7 | 0.00 | 0.00 | 0.00 | 52 | 1010.7 |
| 20260504003905 | 51 | 344 | 4.3 | 10.4 | 0.00 | 0.00 | 0.00 | 52 | 1010.7 |
| 20260504003404 | 51 | 322 | 4.3 | 7.8 | 0.00 | 0.00 | 0.00 | 51 | 1010.6 |
| 20260504002904 | 51 | 295 | 3.5 | 7.8 | 0.00 | 0.00 | 0.00 | 51 | 1010.5 |
| 20260504002404 | 51 | 323 | 3.5 | 6.1 | 0.00 | 0.00 | 0.00 | 51 | 1010.5 |
| 20260504001904 | 52 | 336 | 2.6 | 6.1 | 0.00 | 0.00 | 0.00 | 50 | 1010.4 |
| 20260504001403 | 52 | 281 | 3.5 | 7.0 | 0.00 | 0.00 | 0.00 | 50 | 1010.3 |
| 20260504000404 | 52 | 349 | 4.3 | 7.8 | 0.00 | 0.00 | 0.00 | 49 | 1010.3 |
| 20260503235904 | 52 | 310 | 3.5 | 6.1 | 0.00 | 0.00 | 0.00 | 49 | 1010.3 |
| 20260503235404 | 52 | 341 | 4.3 | 10.4 | 0.00 | 0.00 | 0.00 | 49 | 1010.2 |
| 20260503234904 | 53 | 349 | 4.3 | 10.4 | 0.00 | 0.00 | 0.00 | 49 | 1010.2 |
| 20260503234404 | 53 | 344 | 5.2 | 11.3 | 0.00 | 0.00 | 0.00 | 48 | 1010.2 |
| 20260503233904 | 53 | 317 | 3.5 | 11.3 | 0.00 | 0.00 | 0.00 | 48 | 1010.2 |
| 20260503233404 | 53 | 334 | 6.1 | 10.4 | 0.00 | 0.00 | 0.00 | 48 | 1010.0 |
| 20260503232904 | 53 | 351 | 6.1 | 10.4 | 0.00 | 0.00 | 0.00 | 48 | 1010.0 |
| 20260503231904 | 53 | 0 | 6.1 | 10.4 | 0.00 | 0.00 | 0.00 | 48 | 1009.9 |
| 20260503231404 | 53 | 0 | 7.8 | 17.4 | 0.00 | 0.00 | 0.00 | 47 | 1009.9 |
| 20260503230904 | 54 | 351 | 6.1 | 12.2 | 0.00 | 0.00 | 0.00 | 47 | 1009.9 |
| 20260503230404 | 54 | 0 | 8.7 | 15.6 | 0.00 | 0.00 | 0.00 | 46 | 1010.0 |
| 20260503225904 | 54 | 358 | 6.1 | 13.0 | 0.00 | 0.00 | 0.00 | 46 | 1009.9 |
| 20260503225404 | 54 | 340 | 7.8 | 15.6 | 0.00 | 0.00 | 0.00 | 46 | 1010.0 |
| 20260503224904 | 54 | 5 | 4.3 | 11.3 | 0.00 | 0.00 | 0.00 | 47 | 1009.9 |
| 20260503224404 | 54 | 356 | 8.7 | 15.6 | 0.00 | 0.00 | 0.00 | 46 | 1009.9 |
| 20260503223904 | 54 | 358 | 7.8 | 13.9 | 0.00 | 0.00 | 0.00 | 46 | 1009.9 |
| 20260503222903 | 54 | 354 | 8.7 | 14.8 | 0.00 | 0.00 | 0.00 | 46 | 1009.9 |
| 20260503222404 | 54 | 0 | 5.2 | 13.0 | 0.00 | 0.00 | 0.00 | 47 | 1009.9 |
| 20260503221903 | 54 | 352 | 7.8 | 14.8 | 0.00 | 0.00 | 0.00 | 46 | 1009.9 |
| 20260503221404 | 54 | 356 | 8.7 | 14.8 | 0.00 | 0.00 | 0.00 | 46 | 1009.9 |
| 20260503220904 | 55 | 353 | 9.6 | 20.0 | 0.00 | 0.00 | 0.00 | 46 | 1009.9 |
| 20260503220404 | 55 | 354 | 6.1 | 11.3 | 0.00 | 0.00 | 0.00 | 47 | 1009.9 |
| 20260503215404 | 54 | 10 | 7.8 | 13.9 | 0.00 | 0.00 | 0.00 | 47 | 1009.9 |
| 20260503214903 | 54 | 353 | 8.7 | 13.9 | 0.00 | 0.00 | 0.00 | 46 | 1009.9 |
| 20260503214404 | 55 | 358 | 9.6 | 13.9 | 0.00 | 0.00 | 0.00 | 46 | 1009.9 |
| 20260503213904 | 55 | 0 | 7.8 | 11.3 | 0.00 | 0.00 | 0.00 | 46 | 1009.9 |
| 20260503213404 | 55 | 352 | 9.6 | 15.6 | 0.00 | 0.00 | 0.00 | 46 | 1009.8 |
| 20260503212904 | 54 | 354 | 7.0 | 11.3 | 0.00 | 0.00 | 0.00 | 47 | 1009.8 |
| 20260503212404 | 54 | 0 | 10.4 | 15.6 | 0.00 | 0.00 | 0.00 | 46 | 1009.7 |
| 20260503211904 | 54 | 356 | 7.8 | 12.2 | 0.00 | 0.00 | 0.00 | 45 | 1009.7 |
| 20260503211403 | 54 | 0 | 8.7 | 14.8 | 0.00 | 0.00 | 0.00 | 46 | 1009.6 |
| 20260503210904 | 54 | 344 | 7.8 | 13.0 | 0.00 | 0.00 | 0.00 | 46 | 1009.8 |
| 20260503210404 | 54 | 338 | 7.0 | 13.0 | 0.00 | 0.00 | 0.00 | 46 | 1009.8 |
| 20260503205404 | 53 | 350 | 9.6 | 14.8 | 0.00 | 0.00 | 0.00 | 45 | 1009.7 |
| 20260503204904 | 53 | 0 | 8.7 | 17.4 | 0.00 | 0.00 | 0.00 | 45 | 1009.6 |
| 20260503203904 | 53 | 0 | 10.4 | 17.4 | 0.00 | 0.00 | 0.00 | 45 | 1009.7 |
| 20260503203404 | 53 | 346 | 7.8 | 13.0 | 0.00 | 0.00 | 0.00 | 46 | 1009.8 |
| 20260503202904 | 53 | 356 | 7.8 | 14.8 | 0.00 | 0.00 | 0.00 | 46 | 1009.7 |
| 20260503202403 | 53 | 356 | 7.0 | 14.8 | 0.00 | 0.00 | 0.00 | 45 | 1009.8 |
| 20260503201904 | 53 | 0 | 11.3 | 18.2 | 0.00 | 0.00 | 0.00 | 45 | 1009.8 |
| 20260503201403 | 53 | 0 | 8.7 | 14.8 | 0.00 | 0.00 | 0.00 | 46 | 1009.8 |
| 20260503200904 | 53 | 353 | 7.0 | 13.0 | 0.00 | 0.00 | 0.00 | 46 | 1009.8 |
| 20260503200403 | 53 | 358 | 10.4 | 13.9 | 0.00 | 0.00 | 0.00 | 45 | 1009.9 |
| 20260503195903 | 53 | 2 | 6.1 | 12.2 | 0.00 | 0.00 | 0.00 | 46 | 1009.8 |
| 20260503195404 | 53 | 346 | 7.8 | 13.0 | 0.00 | 0.00 | 0.00 | 45 | 1009.9 |
| 20260503194904 | 52 | 0 | 8.7 | 14.8 | 0.00 | 0.00 | 0.00 | 46 | 1010.0 |
| 20260503194404 | 52 | 0 | 7.8 | 13.9 | 0.00 | 0.00 | 0.00 | 46 | 1010.2 |
| 20260503193904 | 52 | 353 | 9.6 | 17.4 | 0.00 | 0.00 | 0.00 | 45 | 1010.2 |
| 20260503193404 | 52 | 0 | 8.7 | 21.7 | 0.00 | 0.00 | 0.00 | 45 | 1010.2 |
| 20260503191905 | 51 | 358 | 11.3 | 20.9 | 0.00 | 0.00 | 0.00 | 46 | 1010.2 |
| 20260503191405 | 51 | 345 | 9.6 | 17.4 | 0.00 | 0.00 | 0.00 | 46 | 1010.2 |
| 20260503190906 | 51 | 0 | 8.7 | 14.8 | 0.00 | 0.00 | 0.00 | 46 | 1010.3 |
| 20260503190405 | 51 | 0 | 12.2 | 20.0 | 0.00 | 0.00 | 0.00 | 47 | 1010.4 |
| 20260503185405 | 51 | 337 | 6.1 | 13.9 | 0.00 | 0.00 | 0.00 | 50 | 1010.4 |
| 20260503184905 | 50 | 354 | 10.4 | 17.4 | 0.00 | 0.00 | 0.00 | 48 | 1010.5 |
| 20260503183405 | 49 | 358 | 10.4 | 20.9 | 0.00 | 0.00 | 0.00 | 49 | 1010.8 |
| 20260503182906 | 49 | 349 | 8.7 | 14.8 | 0.00 | 0.00 | 0.00 | 50 | 1010.8 |
| 20260503182405 | 49 | 339 | 11.3 | 18.2 | 0.00 | 0.00 | 0.00 | 49 | 1010.9 |
| 20260503181905 | 50 | 0 | 9.6 | 13.0 | 0.00 | 0.00 | 0.00 | 48 | 1010.8 |
| 20260503181406 | 49 | 355 | 4.3 | 11.3 | 0.00 | 0.00 | 0.00 | 50 | 1010.8 |
| 20260503180906 | 48 | 2 | 7.8 | 14.8 | 0.00 | 0.00 | 0.00 | 49 | 1010.8 |
| 20260503180405 | 48 | 0 | 10.4 | 22.6 | 0.00 | 0.00 | 0.00 | 49 | 1010.9 |
| 20260503175905 | 48 | 356 | 9.6 | 17.4 | 0.00 | 0.00 | 0.00 | 49 | 1010.9 |
| 20260503175405 | 48 | 356 | 12.2 | 20.0 | 0.00 | 0.00 | 0.00 | 49 | 1010.9 |
| 20260503173405 | 47 | 0 | 7.8 | 17.4 | 0.00 | 0.00 | 0.00 | 51 | 1011.0 |
| 20260503172405 | 46 | 359 | 10.4 | 18.2 | 0.00 | 0.00 | 0.00 | 52 | 1011.2 |
| 20260503171905 | 47 | 358 | 8.7 | 17.4 | 0.00 | 0.00 | 0.00 | 51 | 1011.4 |
| 20260503171405 | 47 | 11 | 12.2 | 17.4 | 0.00 | 0.00 | 0.00 | 51 | 1011.3 |
| 20260503170906 | 46 | 353 | 7.8 | 17.4 | 0.00 | 0.00 | 0.00 | 52 | 1011.3 |
| 20260503170405 | 47 | 0 | 11.3 | 14.8 | 0.00 | 0.00 | 0.00 | 51 | 1011.4 |
| 20260503150405 | 43 | 0 | 8.7 | 15.6 | 0.00 | 0.01 | 0.00 | 55 | 1011.6 |
| 20260503131405 | 39 | 4 | 6.1 | 13.9 | 0.00 | 0.01 | 0.00 | 76 | 1011.9 |